Location: Brintons Corners
(40.8528°N, 80.1820°W)
Time: 02:19:54
(UTC+00:00)

Daily predictions for brighter satellites

Satellite Brightness Start Highest point End
(mag) Time Altitude Azimuth Time Altitude Azimuth Time Altitude Azimuth
YAOGAN 1 2.8 00:01:16 10° S 00:05:34 70° WSW 00:09:55 10° NNW
CSL-04 Debris 4.3 00:01:08 10° S 00:06:37 76° WSW 00:12:08 10° NNW
Cosmos 1633 3.0 00:05:34 10° NNW 00:09:10 59° W 00:12:44 10° S
Cosmos 1656 4.1 00:06:50 10° SW 00:12:19 58° WNW 00:16:16 19° N
Cosmos 1607 4.1 00:06:38 10° NW 00:12:50 74° WSW 00:17:51 17° SSE
Cosmos 2219 4.4 00:07:52 10° NW 00:13:07 41° WSW 00:18:20 10° S
Cosmos 923 Rocket 4.1 00:13:30 10° SSW 00:18:43 75° WNW 00:20:43 38° N
Cosmos 1862 3.9 00:17:32 10° NNW 00:21:15 55° W 00:21:15 55° W
Cosmos 2034 Rocket 4.1 00:20:50 10° N 00:27:11 77° W 00:33:32 10° S
Cosmos 1980 Rocket 2.9 00:26:55 10° S 00:30:30 39° S 00:30:30 39° S
Lacrosse 4 Rocket 2.7 00:32:42 10° SW 00:35:33 37° WSW 00:35:33 37° WSW
Cosmos 2227 Rocket 3.2 00:31:19 10° NW 00:36:40 44° WSW 00:41:59 10° S
Cosmos 2297 Rocket 3.4 00:32:00 10° NW 00:37:14 40° WSW 00:42:28 10° S
Tsikada Rocket 4.1 00:37:02 10° SSW 00:43:21 75° W 00:49:47 10° N
Cosmos 2369 4.4 00:41:37 10° SW 00:47:05 50° WNW 00:48:30 41° NNW
Cosmos 1697 Rocket 4.1 01:08:44 10° WSW 01:13:49 33° WNW 01:14:08 33° NW
ATLAS 5 CENTAUR R/B 4.2 01:21:53 10° WNW 01:26:54 27° WSW 01:28:51 23° SW
USA 215 4.1 01:31:03 46° WNW 01:31:03 46° WNW 01:35:33 10° NW
H-2A R/B 4.4 01:01:43 10° W 01:43:34 49° SSW 01:45:00 47° SSW
Cosmos 2082 Rocket 4.3 08:40:53 19° SE 08:42:51 22° E 08:47:09 10° NE
Cosmos 1833 Rocket 3.6 09:06:34 46° ENE 09:06:34 46° ENE 09:11:01 10° NNE
ISS -0.6 09:27:20 14° ESE 09:27:20 14° ESE 09:27:54 10° ESE
Cosmos 1980 Rocket 3.8 09:22:26 15° N 09:26:14 30° ENE 09:31:12 10° ESE
Cosmos 2369 3.8 09:40:23 49° N 09:41:56 76° ENE 09:47:40 10° SSE
ASTEX 1 4.3 09:39:11 10° SSE 09:43:54 49° E 09:48:41 10° N
Lacrosse 5 1.8 09:44:47 82° SE 09:44:47 82° SE 09:49:52 10° NE
MSX 3.7 09:40:43 10° N 09:46:25 70° WNW 09:46:25 70° WNW
CZ-2C R/B 2.4 09:42:11 10° NNE 09:47:08 78° ESE 09:49:14 34° S
Cosmos 2084 Rocket 4.4 09:50:01 40° NNE 09:50:01 40° NNE 09:52:58 10° NNE
Cosmos 839 Rocket 4.2 09:46:31 11° SSW 09:54:04 84° ESE 10:00:28 10° NNE
Atlas Centaur 2 3.8 09:58:17 10° S 09:58:17 10° S 09:58:22 10° S
CZ-4B R/B 4.2 09:52:45 10° NNE 09:57:15 76° ESE 10:01:44 10° S
Cosmos 1934 Rocket 3.9 09:54:05 22° SSW 09:58:08 60° W 10:04:26 10° N
CZ-3B R/B 4.3 09:56:31 11° S 09:58:31 14° SSE 10:02:29 10° SE
Cosmos 2278 3.7 09:59:14 25° NNW 10:02:40 82° ENE 10:08:23 10° SSE
ATLAS 2AS CENTAUR R/B 4.5 09:59:49 10° NNW 10:06:15 27° NE 10:12:16 10° E
Cosmos 1697 Rocket 2.5 10:05:10 38° NW 10:07:22 73° WSW 10:12:56 10° SSE
CZ-4C R/B 4.1 10:08:08 15° NNW 10:08:08 15° NNW 10:11:06 10° N
Cosmos 1076 Rocket 3.6 10:03:46 10° S 10:08:07 76° E 10:12:28 10° N
PAYLOAD A 4.2 10:07:25 10° N 10:12:33 50° WNW 10:14:45 31° SW
Meteor 1-11 4.4 10:10:46 31° SW 10:13:08 49° WNW 10:18:43 10° N
APEX 2.8 10:14:23 76° SSE 10:14:23 76° SSE 10:17:51 10° SSE
Cosmos 967 Rocket 4.4 10:09:36 13° SSW 10:15:17 82° WNW 10:21:44 10° NNE
SL-27 R/B 3.3 10:12:18 10° S 10:15:29 47° ESE 10:18:41 10° NNE
Cosmos 2112 Rocket 4.4 10:10:17 10° NNW 10:15:34 65° ENE 10:20:51 10° SSE
Cosmos 2058 3.2 10:11:46 10° S 10:15:56 68° E 10:20:07 10° NNE
Cosmos 2221 2.7 10:22:23 44° WNW 10:23:05 49° W 10:27:18 10° SSW
Cosmos 1680 Rocket 3.5 10:18:45 12° NNW 10:23:41 89° ENE 10:29:00 10° SSE
COBE Rocket 3.9 10:20:14 10° S 10:25:25 82° WSW 10:30:34 10° NNW
Cosmos 1153 Rocket 4.4 10:19:43 10° S 10:25:52 85° W 10:32:02 10° N
Cosmos 2082 Rocket 2.3 10:22:53 21° SW 10:26:30 52° WNW 10:32:06 10° NNE
CZ-4B R/B 3.7 10:23:04 10° N 10:25:05 29° NNW 10:25:05 29° NNW
Cosmos 2123 Rocket 4.3 10:22:19 10° NNW 10:27:58 39° W 10:33:38 10° SSW
Shenzhou-11 Module 2.1 10:29:50 53° NNE 10:29:50 53° NNE 10:32:14 10° ENE
BREEZE-M DEB (TANK) 2.6 10:29:01 45° NNW 10:29:37 59° NNE 10:34:18 10° ESE
COSMO-SKYMED 1 2.7 10:28:14 10° SSE 10:32:33 76° ENE 10:36:55 10° N
Cosmos 1356 Rocket 3.4 10:30:32 10° NNW 10:34:51 82° W 10:39:09 10° S
SJ-12 4.0 10:33:44 10° NNE 10:37:54 78° ESE 10:42:02 10° S
Cosmos 1605 Rocket 4.3 10:34:17 10° SSW 10:40:10 42° WNW 10:45:59 10° N
OAO 2 Rocket 4.2 10:37:40 19° WSW 10:40:59 42° S 10:45:42 10° ESE
Cosmos 2173 Rocket 4.2 10:34:44 10° S 10:41:00 74° E 10:47:13 10° N
SJ 16-02 1.2 10:38:56 10° SSW 10:43:19 80° WNW 10:47:44 10° NNE
Cosmos 990 Rocket 3.9 10:40:53 10° SSW 10:46:02 74° WNW 10:51:15 10° NNE
Meteor 2-20 4.4 10:40:40 10° NNW 10:46:47 68° W 10:52:52 10° S
Cosmos 923 Rocket 4.4 10:43:29 16° NW 10:47:16 41° WSW 10:52:08 10° S
Cosmos 158 Rocket 3.9 10:43:07 10° NNW 10:48:07 81° ENE 10:52:59 10° SSE
SL-4 R/B 4.0 10:45:34 15° NW 10:48:19 24° N 10:52:13 10° ENE
ALOS 2.4 10:44:04 10° NNE 10:48:45 78° ESE 10:53:25 10° S
Cosmos 1833 Rocket 3.7 10:48:21 22° WNW 10:49:48 24° NW 10:54:18 10° N
Okean O Rocket 1.9 10:46:30 10° NNE 10:50:50 68° ESE 10:55:08 10° S
OAO 3 Rocket 4.3 10:49:05 12° SW 10:53:03 37° S 10:57:25 10° ESE
STARLINK-43 3.5 10:53:34 21° WSW 10:55:51 55° NW 10:59:32 10° NE
Cosmos 2151 2.9 10:53:56 10° S 10:58:13 85° W 11:02:33 10° N
Meteor 1-31 Rocket 4.2 10:56:53 10° NNW 10:59:10 19° WNW 10:59:10 19° WNW
SL-16 R/B 3.0 10:54:51 10° NNW 11:00:24 52° ENE 11:05:54 10° SE
ISS -1.9 11:00:17 15° WSW 11:01:01 16° SW 11:03:13 10° S
Cosmos 2360 Rocket 4.2 10:59:35 10° N 11:04:16 25° NE 11:08:55 10° ESE
Cosmos 1869 4.0 11:02:43 10° NNW 11:06:12 31° W 11:09:40 10° SSW
ATLAS CENTAUR R/B 3.6 11:02:42 10° S 11:07:10 36° ESE 11:11:35 10° NE
Cosmos 1484 Rocket 3.5 11:03:41 10° N 11:07:17 33° WNW 11:10:52 10° SW
Cosmos 1898 Rocket 3.8 11:03:55 10° SW 11:08:52 44° WNW 11:13:55 10° N
Cosmos 1980 Rocket 2.7 11:05:01 10° NW 11:10:18 40° WSW 11:15:32 10° S
Cosmos 2322 Rocket 2.9 11:06:40 10° NNW 11:12:14 55° ENE 11:17:47 10° SE
Gbstr 26 Del rocket 3.2 11:15:12 11° W 11:18:40 40° NNW 11:22:12 10° NE
USA 116 3.7 11:17:35 10° S 11:20:31 38° W 11:23:37 10° NNW
SKYMED 2 4.4 11:16:57 10° SSW 11:20:48 31° W 11:24:39 10° NW
Cosmos 1892 3.2 11:17:46 10° SW 11:21:17 35° WNW 11:24:47 10° N
Cosmos 1606 4.4 11:19:31 10° N 11:23:03 35° ENE 11:26:33 10° SE
COSMOS 2455 3.0 11:18:02 10° NNW 11:24:04 79° ENE 11:30:04 10° SSE
Cosmos 1937 Rocket 3.8 11:19:13 10° SW 11:24:07 44° WNW 11:29:02 10° N
NOSS 3-3 (A) 4.3 11:18:33 10° WSW 11:24:18 46° NW 11:30:44 10° NNE
NOSS 3-3 (C) 4.2 11:18:47 10° WSW 11:24:26 46° NW 11:30:47 10° NNE
CZ-2C R/B 4.1 11:22:36 10° NW 11:24:38 12° WNW 11:26:37 10° W
Radarsat Rocket 4.1 11:19:32 10° NNE 11:25:25 82° ESE 11:31:19 10° SSW
Cosmos 1725 Rocket 4.1 11:20:18 10° S 11:26:33 89° E 11:32:52 10° N
Lacrosse 5 3.1 11:24:08 10° W 11:28:16 24° NNW 11:32:23 10° NNE
NOAA 6 4.1 11:23:39 10° N 11:28:40 57° WNW 11:33:39 10° SSW
Cosmos 1459 Rocket 4.2 11:23:26 10° SSW 11:29:18 47° WNW 11:35:19 10° N
Cosmos 1515 Rocket 3.8 11:27:06 10° N 11:31:27 74° E 11:35:45 10° SSE
Cosmos 2016 Rocket 4.0 11:25:37 10° SSW 11:31:46 66° W 11:38:04 10° N
Cosmos 1743 Rocket 4.0 11:28:55 10° S 11:33:13 68° E 11:37:31 10° NNE
Cosmos 1408 2.8 11:30:31 10° SSW 11:34:07 49° W 11:37:43 10° N
Cosmos 1328 Rocket 3.6 11:30:29 10° NNW 11:34:47 60° W 11:39:00 10° S
Cosmos 1933 3.7 11:32:22 10° N 11:36:23 69° E 11:40:22 10° SSE
Helios 1A Rocket 3.6 11:34:43 10° N 11:38:23 32° WNW 11:42:00 10° SW
STARLINK-26 4.3 11:34:44 10° SW 11:38:45 60° SE 11:42:47 10° ENE
CZ-4B R/B 3.4 11:34:17 10° N 11:39:25 47° WNW 11:44:37 10° SW
STARLINK-68 4.4 11:36:14 10° SW 11:40:17 57° SE 11:44:22 10° ENE
Tsikada Rocket 4.1 11:34:26 10° N 11:40:53 89° W 11:47:13 10° S
USA 267 3.4 11:36:49 10° NE 11:43:24 89° SSE 11:49:57 10° SW
